Time,TemperatureF,DewpointF,PressureIn,WindDirection,WindDirectionDegrees,WindSpeedMPH,WindSpeedGustMPH,Humidity,HourlyPrecipIn,Conditions,Clouds,dailyrainin,SoftwareType,DateUTC
2013-03-06 00:00:00,29.7,17.9,30.01,SW,232,2.0,2.0,61,0.00,,,0.01,Wunderground v.1.15,2013-03-06 07:00:00,
2013-03-06 00:05:00,29.6,17.8,30.01,WSW,248,1.0,19.0,61,0.00,,,0.00,Wunderground v.1.15,2013-03-06 07:05:00,
2013-03-06 00:10:00,29.6,18.2,30.01,West,262,0.0,19.0,62,0.00,,,0.00,Wunderground v.1.15,2013-03-06 07:10:00,
2013-03-06 00:15:00,29.5,18.1,30.01,West,280,0.0,19.0,62,0.00,,,0.00,Wunderground v.1.15,2013-03-06 07:15:00,
2013-03-06 00:20:00,29.4,18.3,30.00,WNW,295,0.0,19.0,63,0.00,,,0.00,Wunderground v.1.15,2013-03-06 07:20:00,
2013-03-06 00:25:00,29.3,18.6,30.00,WSW,248,1.0,19.0,64,0.00,,,0.00,Wunderground v.1.15,2013-03-06 07:25:00,
2013-03-06 00:30:00,29.3,18.6,30.00,West,276,2.0,19.0,64,0.00,,,0.00,Wunderground v.1.15,2013-03-06 07:30:00,
2013-03-06 00:40:00,29.2,18.5,30.00,West,271,2.0,2.0,64,0.00,,,0.00,Wunderground v.1.15,2013-03-06 07:40:00,
2013-03-06 00:45:00,29.1,18.4,30.00,WSW,253,1.0,19.0,64,0.00,,,0.00,Wunderground v.1.15,2013-03-06 07:45:00,
2013-03-06 00:50:00,28.9,18.2,30.00,West,263,1.0,1.0,64,0.00,,,0.00,Wunderground v.1.15,2013-03-06 07:50:00,
2013-03-06 00:55:00,28.8,18.1,29.99,West,270,1.0,19.0,64,0.00,,,0.00,Wunderground v.1.15,2013-03-06 07:55:00,
2013-03-06 01:00:00,28.8,18.1,29.99,SW,233,1.0,19.0,64,0.00,,,0.00,Wunderground v.1.15,2013-03-06 08:00:00,
2013-03-06 01:05:00,28.7,18.1,29.99,WSW,255,1.0,19.0,64,0.00,,,0.00,Wunderground v.1.15,2013-03-06 08:05:00,
2013-03-06 01:10:00,28.6,18.0,29.98,WNW,283,2.0,19.0,64,0.00,,,0.00,Wunderground v.1.15,2013-03-06 08:10:00,
2013-03-06 01:20:00,28.3,18.0,29.98,WNW,285,1.0,19.0,65,0.00,,,0.00,Wunderground v.1.15,2013-03-06 08:20:00,
2013-03-06 01:25:00,28.3,18.0,29.98,West,271,2.0,19.0,65,0.00,,,0.00,Wunderground v.1.15,2013-03-06 08:25:00,
2013-03-06 01:30:00,28.2,17.9,29.98,WSW,242,1.0,1.0,65,0.00,,,0.00,Wunderground v.1.15,2013-03-06 08:30:00,
2013-03-06 01:40:00,28.0,17.4,29.98,West,264,0.0,19.0,64,0.00,,,0.00,Wunderground v.1.15,2013-03-06 08:40:00,
2013-03-06 01:45:00,27.9,17.3,29.98,NE,53,0.0,19.0,64,0.00,,,0.00,Wunderground v.1.15,2013-03-06 08:45:00,
2013-03-06 01:50:00,27.8,17.2,29.98,NNE,33,0.0,19.0,64,0.00,,,0.00,Wunderground v.1.15,2013-03-06 08:50:00,
2013-03-06 01:55:00,27.7,17.5,29.98,SW,233,0.0,19.0,65,0.00,,,0.00,Wunderground v.1.15,2013-03-06 08:55:00,
2013-03-06 02:00:00,27.7,17.1,29.97,WSW,255,1.0,19.0,64,0.00,,,0.00,Wunderground v.1.15,2013-03-06 09:00:00,
2013-03-06 02:09:00,27.8,16.8,29.97,West,274,2.0,2.0,63,0.00,,,0.00,Wunderground v.1.15,2013-03-06 09:09:00,
2013-03-06 02:15:00,27.6,16.6,29.96,West,259,1.0,19.0,63,0.00,,,0.00,Wunderground v.1.15,2013-03-06 09:15:00,
2013-03-06 02:20:00,27.3,16.7,29.96,SSW,211,1.0,19.0,64,0.00,,,0.00,Wunderground v.1.15,2013-03-06 09:20:00,
2013-03-06 02:25:00,27.0,16.4,29.96,WSW,258,1.0,19.0,64,0.00,,,0.00,Wunderground v.1.15,2013-03-06 09:25:00,
2013-03-06 02:30:00,27.2,15.9,29.96,WNW,288,2.0,2.0,62,0.00,,,0.00,Wunderground v.1.15,2013-03-06 09:30:00,
2013-03-06 02:35:00,27.3,16.4,29.95,WSW,257,2.0,3.0,63,0.00,,,0.00,Wunderground v.1.15,2013-03-06 09:35:00,
2013-03-06 02:45:00,27.1,16.9,29.95,WNW,296,2.0,19.0,65,0.00,,,0.00,Wunderground v.1.15,2013-03-06 09:45:00,
2013-03-06 02:55:00,26.7,16.1,29.94,WSW,238,1.0,19.0,64,0.00,,,0.00,Wunderground v.1.15,2013-03-06 09:55:00,
2013-03-06 03:00:00,26.7,16.1,29.93,West,264,1.0,19.0,64,0.00,,,0.00,Wunderground v.1.15,2013-03-06 10:00:00,
2013-03-06 03:05:00,26.7,16.1,29.93,WNW,293,1.0,19.0,64,0.00,,,0.00,Wunderground v.1.15,2013-03-06 10:05:00,
2013-03-06 03:10:00,26.6,16.1,29.93,WSW,238,1.0,19.0,64,0.00,,,0.00,Wunderground v.1.15,2013-03-06 10:10:00,
2013-03-06 03:20:00,26.5,16.3,29.92,WNW,283,2.0,19.0,65,0.00,,,0.00,Wunderground v.1.15,2013-03-06 10:20:00,
2013-03-06 03:25:00,26.3,16.5,29.92,WNW,288,2.0,19.0,66,0.00,,,0.00,Wunderground v.1.15,2013-03-06 10:25:00,
2013-03-06 03:35:00,26.0,16.2,29.91,West,263,2.0,19.0,66,0.00,,,0.00,Wunderground v.1.15,2013-03-06 10:35:00,
2013-03-06 03:40:00,26.1,15.9,29.92,WNW,301,2.0,19.0,65,0.00,,,0.00,Wunderground v.1.15,2013-03-06 10:40:00,
2013-03-06 03:45:00,26.2,16.0,29.92,West,260,2.0,19.0,65,0.00,,,0.00,Wunderground v.1.15,2013-03-06 10:45:00,
2013-03-06 03:55:00,25.9,16.1,29.91,WNW,294,2.0,19.0,66,0.00,,,0.00,Wunderground v.1.15,2013-03-06 10:55:00,
2013-03-06 04:00:00,25.6,16.2,29.91,WNW,292,3.0,19.0,67,0.00,,,0.00,Wunderground v.1.15,2013-03-06 11:00:00,
2013-03-06 04:05:00,25.4,16.6,29.91,SW,229,3.0,19.0,69,0.00,,,0.00,Wunderground v.1.15,2013-03-06 11:05:00,
2013-03-06 04:15:00,25.1,16.0,29.90,West,270,2.0,19.0,68,0.00,,,0.00,Wunderground v.1.15,2013-03-06 11:15:00,
2013-03-06 04:20:00,25.2,16.1,29.90,West,263,2.0,19.0,68,0.00,,,0.00,Wunderground v.1.15,2013-03-06 11:20:00,
2013-03-06 04:25:00,25.3,15.9,29.90,WSW,248,2.0,19.0,67,0.00,,,0.00,Wunderground v.1.15,2013-03-06 11:25:00,
2013-03-06 04:30:00,25.2,16.1,29.89,West,276,2.0,19.0,68,0.00,,,0.00,Wunderground v.1.15,2013-03-06 11:30:00,
2013-03-06 04:35:00,25.2,15.8,29.89,WNW,303,2.0,19.0,67,0.00,,,0.00,Wunderground v.1.15,2013-03-06 11:35:00,
2013-03-06 04:40:00,25.0,15.9,29.89,WNW,295,3.0,19.0,68,0.00,,,0.00,Wunderground v.1.15,2013-03-06 11:40:00,
2013-03-06 04:45:00,25.0,15.9,29.89,West,278,4.0,19.0,68,0.00,,,0.00,Wunderground v.1.15,2013-03-06 11:45:00,
2013-03-06 04:50:00,25.1,16.0,29.89,WNW,284,3.0,3.0,68,0.00,,,0.00,Wunderground v.1.15,2013-03-06 11:50:00,
2013-03-06 04:59:00,25.3,15.9,29.89,West,262,3.0,19.0,67,0.00,,,0.00,Wunderground v.1.15,2013-03-06 11:59:00,
2013-03-06 05:05:00,25.2,15.8,29.89,West,273,3.0,19.0,67,0.00,,,0.00,Wunderground v.1.15,2013-03-06 12:05:00,
2013-03-06 05:10:00,25.0,15.9,29.88,WSW,255,2.0,2.0,68,0.00,,,0.00,Wunderground v.1.15,2013-03-06 12:10:00,
2013-03-06 05:15:00,24.9,15.8,29.88,West,278,1.0,19.0,68,0.00,,,0.00,Wunderground v.1.15,2013-03-06 12:15:00,
2013-03-06 05:20:00,24.8,16.1,29.88,WSW,238,1.0,1.0,69,0.00,,,0.00,Wunderground v.1.15,2013-03-06 12:20:00,
2013-03-06 05:25:00,24.9,15.8,29.88,SW,222,1.0,19.0,68,0.00,,,0.00,Wunderground v.1.15,2013-03-06 12:25:00,
2013-03-06 05:30:00,25.0,15.9,29.88,WNW,297,1.0,19.0,68,0.00,,,0.00,Wunderground v.1.15,2013-03-06 12:30:00,
2013-03-06 05:35:00,25.0,16.3,29.88,WNW,294,1.0,19.0,69,0.00,,,0.00,Wunderground v.1.15,2013-03-06 12:35:00,
2013-03-06 05:44:00,25.0,16.6,29.87,ENE,65,1.0,19.0,70,0.00,,,0.00,Wunderground v.1.15,2013-03-06 12:44:00,
2013-03-06 05:50:00,25.1,17.0,29.86,SE,131,1.0,19.0,71,0.00,,,0.00,Wunderground v.1.15,2013-03-06 12:50:00,
2013-03-06 05:55:00,25.3,16.5,29.86,West,280,2.0,19.0,69,0.00,,,0.00,Wunderground v.1.15,2013-03-06 12:55:00,
2013-03-06 06:00:00,25.9,16.4,29.87,West,267,4.0,4.0,67,0.00,,,0.00,Wunderground v.1.15,2013-03-06 13:00:00,
2013-03-06 06:05:00,26.4,16.2,29.87,SW,226,2.0,19.0,65,0.00,,,0.00,Wunderground v.1.15,2013-03-06 13:05:00,
2013-03-06 06:10:00,26.7,16.5,29.87,NE,41,0.0,19.0,65,0.00,,,0.00,Wunderground v.1.15,2013-03-06 13:10:00,
2013-03-06 06:15:00,26.9,16.7,29.86,North,8,0.0,19.0,65,0.00,,,0.00,Wunderground v.1.15,2013-03-06 13:15:00,
2013-03-06 06:24:00,27.3,17.1,29.85,WSW,246,2.0,19.0,65,0.00,,,0.00,Wunderground v.1.15,2013-03-06 13:24:00,
2013-03-06 06:30:00,27.4,17.2,29.84,NE,53,2.0,2.0,65,0.00,,,0.00,Wunderground v.1.15,2013-03-06 13:30:00,
2013-03-06 06:35:00,27.7,16.4,29.84,WNW,283,1.0,19.0,62,0.00,,,0.00,Wunderground v.1.15,2013-03-06 13:35:00,
2013-03-06 06:40:00,27.8,16.8,29.83,WNW,284,2.0,19.0,63,0.00,,,0.00,Wunderground v.1.15,2013-03-06 13:40:00,
2013-03-06 06:45:00,27.7,17.1,29.83,SSE,153,2.0,19.0,64,0.00,,,0.00,Wunderground v.1.15,2013-03-06 13:45:00,
2013-03-06 06:50:00,27.7,16.7,29.83,SE,128,1.0,1.0,63,0.00,,,0.00,Wunderground v.1.15,2013-03-06 13:50:00,
2013-03-06 06:55:00,28.0,16.6,29.83,SE,128,0.0,19.0,62,0.00,,,0.00,Wunderground v.1.15,2013-03-06 13:55:00,
2013-03-06 07:00:00,28.3,17.3,29.82,SE,128,0.0,19.0,63,0.00,,,0.00,Wunderground v.1.15,2013-03-06 14:00:00,
2013-03-06 07:05:00,28.3,17.3,29.82,NE,47,0.0,19.0,63,0.00,,,0.00,Wunderground v.1.15,2013-03-06 14:05:00,
2013-03-06 07:15:00,28.0,17.7,29.81,West,267,1.0,19.0,65,0.00,,,0.00,Wunderground v.1.15,2013-03-06 14:15:00,
2013-03-06 07:20:00,27.9,17.6,29.81,WSW,255,1.0,1.0,65,0.00,,,0.00,Wunderground v.1.15,2013-03-06 14:20:00,
2013-03-06 07:25:00,27.9,18.0,29.81,SW,224,1.0,19.0,66,0.00,,,0.00,Wunderground v.1.15,2013-03-06 14:25:00,
2013-03-06 07:30:00,28.0,17.7,29.81,SW,228,1.0,19.0,65,0.00,,,0.00,Wunderground v.1.15,2013-03-06 14:30:00,
2013-03-06 07:40:00,28.4,17.8,29.80,West,276,0.0,19.0,64,0.00,,,0.00,Wunderground v.1.15,2013-03-06 14:40:00,
2013-03-06 07:45:00,28.5,18.2,29.80,West,275,0.0,19.0,65,0.00,,,0.00,Wunderground v.1.15,2013-03-06 14:45:00,
2013-03-06 07:50:00,28.4,18.5,29.79,WNW,303,1.0,19.0,66,0.00,,,0.00,Wunderground v.1.15,2013-03-06 14:50:00,
2013-03-06 07:55:00,28.4,18.5,29.79,WNW,287,1.0,19.0,66,0.00,,,0.00,Wunderground v.1.15,2013-03-06 14:55:00,
2013-03-06 08:00:00,28.3,18.4,29.79,NW,316,1.0,19.0,66,0.00,,,0.00,Wunderground v.1.15,2013-03-06 15:00:00,
2013-03-06 08:05:00,28.3,18.4,29.79,West,281,2.0,19.0,66,0.00,,,0.00,Wunderground v.1.15,2013-03-06 15:05:00,
2013-03-06 08:15:00,28.6,18.3,29.78,SSW,210,1.0,19.0,65,0.00,,,0.00,Wunderground v.1.15,2013-03-06 15:15:00,
2013-03-06 08:20:00,28.9,18.6,29.78,West,269,1.0,1.0,65,0.00,,,0.00,Wunderground v.1.15,2013-03-06 15:20:00,
2013-03-06 08:25:00,29.1,18.4,29.78,WSW,243,0.0,19.0,64,0.00,,,0.00,Wunderground v.1.15,2013-03-06 15:25:00,
2013-03-06 08:35:00,29.6,19.3,29.77,SW,226,0.0,19.0,65,0.00,,,0.00,Wunderground v.1.15,2013-03-06 15:35:00,
2013-03-06 08:40:00,30.0,19.7,29.77,SW,226,0.0,19.0,65,0.00,,,0.00,Wunderground v.1.15,2013-03-06 15:40:00,
2013-03-06 08:45:00,30.4,19.7,29.76,SW,226,0.0,19.0,64,0.00,,,0.00,Wunderground v.1.15,2013-03-06 15:45:00,
2013-03-06 08:50:00,30.8,19.7,29.76,SW,227,0.0,19.0,63,0.00,,,0.00,Wunderground v.1.15,2013-03-06 15:50:00,
2013-03-06 09:00:00,31.7,20.2,29.76,NNE,24,1.0,19.0,62,0.00,,,0.00,Wunderground v.1.15,2013-03-06 16:00:00,
2013-03-06 09:04:00,31.9,20.3,29.76,NE,47,1.0,19.0,62,0.00,,,0.00,Wunderground v.1.15,2013-03-06 16:04:00,
2013-03-06 09:10:00,32.0,20.1,29.76,East,84,1.0,1.0,61,0.00,,,0.00,Wunderground v.1.15,2013-03-06 16:10:00,
2013-03-06 09:15:00,32.0,19.7,29.76,WNW,295,1.0,19.0,60,0.00,,,0.00,Wunderground v.1.15,2013-03-06 16:15:00,
2013-03-06 09:20:00,32.1,19.8,29.76,NNE,27,1.0,19.0,60,0.00,,,0.00,Wunderground v.1.15,2013-03-06 16:20:00,
2013-03-06 09:25:00,32.6,20.6,29.75,SW,214,1.0,19.0,61,0.00,,,0.00,Wunderground v.1.15,2013-03-06 16:25:00,
2013-03-06 09:30:00,32.8,20.0,29.75,West,262,1.0,19.0,59,0.00,,,0.00,Wunderground v.1.15,2013-03-06 16:30:00,
2013-03-06 09:35:00,32.8,20.0,29.75,West,260,2.0,19.0,59,0.00,,,0.00,Wunderground v.1.15,2013-03-06 16:35:00,
2013-03-06 09:40:00,32.8,20.4,29.75,WNW,283,2.0,19.0,60,0.00,,,0.00,Wunderground v.1.15,2013-03-06 16:40:00,
2013-03-06 09:49:00,33.3,20.5,29.75,WSW,242,2.0,19.0,59,0.00,,,0.00,Wunderground v.1.15,2013-03-06 16:49:00,
2013-03-06 09:55:00,33.5,20.7,29.75,SW,215,2.0,19.0,59,0.00,,,0.00,Wunderground v.1.15,2013-03-06 16:55:00,
2013-03-06 10:00:00,33.8,20.6,29.75,West,274,2.0,2.0,58,0.00,,,0.00,Wunderground v.1.15,2013-03-06 17:00:00,
2013-03-06 10:05:00,34.2,20.5,29.75,WNW,296,1.0,19.0,57,0.00,,,0.00,Wunderground v.1.15,2013-03-06 17:05:00,
2013-03-06 10:10:00,34.4,20.3,29.75,WNW,296,1.0,1.0,56,0.00,,,0.00,Wunderground v.1.15,2013-03-06 17:10:00,
2013-03-06 10:15:00,35.1,20.5,29.74,NE,36,1.0,19.0,55,0.00,,,0.00,Wunderground v.1.15,2013-03-06 17:15:00,
2013-03-06 10:25:00,37.0,21.9,29.73,East,95,1.0,19.0,54,0.00,,,0.00,Wunderground v.1.15,2013-03-06 17:25:00,
2013-03-06 10:30:00,37.8,22.6,29.73,ESE,118,1.0,1.0,54,0.00,,,0.00,Wunderground v.1.15,2013-03-06 17:30:00,
2013-03-06 10:35:00,38.5,21.9,29.72,SW,215,1.0,19.0,51,0.00,,,0.00,Wunderground v.1.15,2013-03-06 17:35:00,
2013-03-06 10:40:00,39.5,23.8,29.72,SSE,159,2.0,19.0,53,0.00,,,0.00,Wunderground v.1.15,2013-03-06 17:40:00,
2013-03-06 10:50:00,40.2,23.0,29.72,SE,136,9.0,19.0,50,0.00,,,0.00,Wunderground v.1.15,2013-03-06 17:50:00,
2013-03-06 10:55:00,40.0,23.8,29.72,SW,236,10.0,19.0,52,0.00,,,0.00,Wunderground v.1.15,2013-03-06 17:55:00,
2013-03-06 11:00:00,39.6,24.3,29.72,South,183,10.0,10.0,54,0.00,,,0.00,Wunderground v.1.15,2013-03-06 18:00:00,
2013-03-06 11:10:00,39.0,25.5,29.69,South,188,11.0,19.0,58,0.00,,,0.00,Wunderground v.1.15,2013-03-06 18:10:00,
2013-03-06 11:15:00,39.5,25.9,29.69,SSE,155,12.0,19.0,58,0.00,,,0.00,Wunderground v.1.15,2013-03-06 18:15:00,
2013-03-06 11:20:00,40.2,26.2,29.68,SSE,157,13.0,19.0,57,0.00,,,0.00,Wunderground v.1.15,2013-03-06 18:20:00,
2013-03-06 11:25:00,40.6,25.7,29.68,SSE,166,14.0,19.0,55,0.00,,,0.00,Wunderground v.1.15,2013-03-06 18:25:00,
2013-03-06 11:30:00,40.5,25.1,29.67,SSE,156,14.0,19.0,54,0.00,,,0.00,Wunderground v.1.15,2013-03-06 18:30:00,
2013-03-06 11:35:00,40.5,25.6,29.67,SSE,156,14.0,19.0,55,0.00,,,0.00,Wunderground v.1.15,2013-03-06 18:35:00,
2013-03-06 11:44:00,40.7,25.3,29.66,SSW,210,13.0,19.0,54,0.00,,,0.00,Wunderground v.1.15,2013-03-06 18:44:00,
2013-03-06 11:50:00,41.2,25.3,29.65,SSE,157,13.0,19.0,53,0.00,,,0.00,Wunderground v.1.15,2013-03-06 18:50:00,
2013-03-06 12:00:00,42.0,25.2,29.66,SE,136,15.0,15.0,51,0.00,,,0.00,Wunderground v.1.15,2013-03-06 19:00:00,
2013-03-06 12:05:00,42.4,25.5,29.66,South,176,13.0,19.0,51,0.00,,,0.00,Wunderground v.1.15,2013-03-06 19:05:00,
2013-03-06 12:10:00,43.2,25.3,29.66,SE,145,10.0,19.0,49,0.00,,,0.00,Wunderground v.1.15,2013-03-06 19:10:00,
2013-03-06 12:15:00,43.7,25.3,29.66,SSE,150,9.0,19.0,48,0.00,,,0.00,Wunderground v.1.15,2013-03-06 19:15:00,
2013-03-06 12:24:00,44.0,25.0,29.65,ESE,116,11.0,19.0,47,0.00,,,0.00,Wunderground v.1.15,2013-03-06 19:24:00,
2013-03-06 12:29:00,44.0,25.0,29.65,SSE,165,11.0,11.0,47,0.00,,,0.00,Wunderground v.1.15,2013-03-06 19:29:00,
2013-03-06 12:35:00,43.7,24.8,29.65,ESE,107,10.0,13.0,47,0.00,,,0.00,Wunderground v.1.15,2013-03-06 19:35:00,
2013-03-06 12:40:00,43.4,24.5,29.65,East,101,10.0,19.0,47,0.00,,,0.00,Wunderground v.1.15,2013-03-06 19:40:00,
2013-03-06 12:45:00,43.5,24.6,29.65,ESE,119,9.0,19.0,47,0.00,,,0.00,Wunderground v.1.15,2013-03-06 19:45:00,
2013-03-06 12:50:00,43.7,24.8,29.64,SE,134,9.0,19.0,47,0.00,,,0.00,Wunderground v.1.15,2013-03-06 19:50:00,
2013-03-06 12:55:00,44.1,25.1,29.64,SSE,155,10.0,19.0,47,0.00,,,0.00,Wunderground v.1.15,2013-03-06 19:55:00,
2013-03-06 13:05:00,44.4,24.9,29.64,SE,128,11.0,19.0,46,0.00,,,0.00,Wunderground v.1.15,2013-03-06 20:05:00,
2013-03-06 13:15:00,44.9,25.3,29.63,SSE,150,13.0,19.0,46,0.00,,,0.00,Wunderground v.1.15,2013-03-06 20:15:00,
2013-03-06 13:20:00,45.3,25.2,29.64,SSE,163,13.0,13.0,45,0.00,,,0.00,Wunderground v.1.15,2013-03-06 20:20:00,
2013-03-06 13:25:00,45.4,25.3,29.63,SSE,161,10.0,19.0,45,0.00,,,0.00,Wunderground v.1.15,2013-03-06 20:25:00,
2013-03-06 13:30:00,45.9,25.7,29.63,SE,139,10.0,19.0,45,0.00,,,0.00,Wunderground v.1.15,2013-03-06 20:30:00,
2013-03-06 13:35:00,46.5,25.7,29.62,South,177,10.0,19.0,44,0.00,,,0.00,Wunderground v.1.15,2013-03-06 20:35:00,
2013-03-06 13:40:00,46.9,25.0,29.62,SE,138,11.0,11.0,42,0.00,,,0.00,Wunderground v.1.15,2013-03-06 20:40:00,
2013-03-06 13:45:00,47.8,25.8,29.62,South,179,10.0,19.0,42,0.00,,,0.00,Wunderground v.1.15,2013-03-06 20:45:00,
2013-03-06 13:55:00,48.7,25.4,29.62,SE,133,5.0,19.0,40,0.00,,,0.00,Wunderground v.1.15,2013-03-06 20:55:00,
2013-03-06 14:00:00,48.6,25.3,29.62,SE,128,5.0,5.0,40,0.00,,,0.00,Wunderground v.1.15,2013-03-06 21:00:00,
2013-03-06 14:05:00,48.3,25.1,29.62,South,184,5.0,10.0,40,0.00,,,0.00,Wunderground v.1.15,2013-03-06 21:05:00,
2013-03-06 14:10:00,47.4,24.9,29.62,South,169,8.0,8.0,41,0.00,,,0.00,Wunderground v.1.15,2013-03-06 21:10:00,
2013-03-06 14:20:00,46.7,24.2,29.63,South,172,9.0,9.0,41,0.00,,,0.00,Wunderground v.1.15,2013-03-06 21:20:00,
2013-03-06 14:25:00,46.7,24.2,29.63,South,179,7.0,19.0,41,0.00,,,0.00,Wunderground v.1.15,2013-03-06 21:25:00,
2013-03-06 14:30:00,46.2,23.8,29.63,SSE,160,7.0,7.0,41,0.00,,,0.00,Wunderground v.1.15,2013-03-06 21:30:00,
2013-03-06 14:40:00,45.5,24.3,29.64,SE,128,7.0,7.0,43,0.00,,,0.00,Wunderground v.1.15,2013-03-06 21:40:00,
2013-03-06 14:45:00,45.1,24.5,29.64,SSE,160,6.0,12.0,44,0.00,,,0.00,Wunderground v.1.15,2013-03-06 21:45:00,
2013-03-06 14:50:00,44.4,25.4,29.65,South,172,8.0,8.0,47,0.00,,,0.00,Wunderground v.1.15,2013-03-06 21:50:00,
2013-03-06 14:55:00,42.5,30.4,29.68,SSW,208,12.0,15.0,62,0.00,,,0.00,Wunderground v.1.15,2013-03-06 21:55:00,
2013-03-06 15:00:00,39.1,29.8,29.68,SSE,162,13.0,13.0,69,0.00,,,0.00,Wunderground v.1.15,2013-03-06 22:00:00,
2013-03-06 15:05:00,36.7,28.9,29.68,ESE,113,13.0,21.0,73,0.00,,,0.00,Wunderground v.1.15,2013-03-06 22:05:00,
2013-03-06 15:14:00,35.1,29.6,29.67,WNW,290,12.0,19.0,80,0.00,,,0.00,Wunderground v.1.15,2013-03-06 22:14:00,
2013-03-06 15:20:00,35.2,29.6,29.67,SW,231,7.0,7.0,80,0.00,,,0.00,Wunderground v.1.15,2013-03-06 22:20:00,
2013-03-06 15:30:00,35.1,28.0,29.67,SSE,152,6.0,19.0,75,0.00,,,0.00,Wunderground v.1.15,2013-03-06 22:30:00,
2013-03-06 15:35:00,35.0,26.9,29.66,SE,124,8.0,19.0,72,0.00,,,0.00,Wunderground v.1.15,2013-03-06 22:35:00,
2013-03-06 15:40:00,35.6,27.1,29.66,East,98,9.0,19.0,71,0.00,,,0.00,Wunderground v.1.15,2013-03-06 22:40:00,
2013-03-06 15:50:00,35.9,27.4,29.64,ENE,78,7.0,19.0,71,0.00,,,0.00,Wunderground v.1.15,2013-03-06 22:50:00,
2013-03-06 15:55:00,35.8,27.3,29.64,ESE,104,8.0,19.0,71,0.00,,,0.00,Wunderground v.1.15,2013-03-06 22:55:00,
2013-03-06 16:00:00,35.9,27.1,29.63,ENE,68,9.0,19.0,70,0.00,,,0.00,Wunderground v.1.15,2013-03-06 23:00:00,
2013-03-06 16:05:00,36.4,26.8,29.64,SE,142,9.0,19.0,68,0.00,,,0.00,Wunderground v.1.15,2013-03-06 23:05:00,
2013-03-06 16:10:00,37.4,26.3,29.64,SSE,149,8.0,19.0,64,0.00,,,0.00,Wunderground v.1.15,2013-03-06 23:10:00,
2013-03-06 16:15:00,37.6,26.1,29.64,SSE,159,8.0,19.0,63,0.00,,,0.00,Wunderground v.1.15,2013-03-06 23:15:00,
2013-03-06 16:20:00,38.4,26.9,29.64,SSE,155,9.0,9.0,63,0.00,,,0.00,Wunderground v.1.15,2013-03-06 23:20:00,
2013-03-06 16:30:00,39.0,27.5,29.64,SSW,198,5.0,5.0,63,0.00,,,0.00,Wunderground v.1.15,2013-03-06 23:30:00,
2013-03-06 16:34:00,39.0,28.2,29.65,WSW,245,3.0,19.0,65,0.00,,,0.00,Wunderground v.1.15,2013-03-06 23:34:00,
2013-03-06 16:40:00,38.9,26.6,29.65,SSE,151,2.0,19.0,61,0.00,,,0.00,Wunderground v.1.15,2013-03-06 23:40:00,
2013-03-06 16:45:00,39.0,27.5,29.64,East,96,2.0,19.0,63,0.00,,,0.00,Wunderground v.1.15,2013-03-06 23:45:00,
2013-03-06 16:50:00,38.9,26.2,29.64,SSE,153,2.0,19.0,60,0.00,,,0.00,Wunderground v.1.15,2013-03-06 23:50:00,
2013-03-06 16:55:00,38.7,26.4,29.64,SSE,156,4.0,19.0,61,0.00,,,0.00,Wunderground v.1.15,2013-03-06 23:55:00,
2013-03-06 17:00:00,38.4,27.3,29.64,NNE,20,4.0,19.0,64,0.00,,,0.00,Wunderground v.1.15,2013-03-07 00:00:00,
2013-03-06 17:10:00,38.1,27.0,29.65,ESE,121,3.0,3.0,64,0.00,,,0.00,Wunderground v.1.15,2013-03-07 00:10:00,
2013-03-06 17:20:00,38.1,28.1,29.65,SW,221,0.0,19.0,67,0.00,,,0.00,Wunderground v.1.15,2013-03-07 00:20:00,
2013-03-06 17:25:00,38.0,28.7,29.65,WNW,295,0.0,19.0,69,0.00,,,0.00,Wunderground v.1.15,2013-03-07 00:25:00,
2013-03-06 17:30:00,37.4,28.9,29.65,NNW,340,1.0,19.0,71,0.00,,,0.00,Wunderground v.1.15,2013-03-07 00:30:00,
2013-03-06 17:35:00,36.8,29.0,29.66,West,263,2.0,19.0,73,0.00,,,0.00,Wunderground v.1.15,2013-03-07 00:35:00,
2013-03-06 17:44:00,36.2,28.7,29.66,ENE,70,1.0,19.0,74,0.00,,,0.00,Wunderground v.1.15,2013-03-07 00:44:00,
2013-03-06 17:50:00,36.0,28.8,29.66,North,1,0.0,19.0,75,0.00,,,0.00,Wunderground v.1.15,2013-03-07 00:50:00,
2013-03-06 17:55:00,35.8,28.6,29.66,NE,43,0.0,19.0,75,0.00,,,0.00,Wunderground v.1.15,2013-03-07 00:55:00,
2013-03-06 18:00:00,35.7,28.6,29.67,East,98,0.0,19.0,75,0.00,,,0.00,Wunderground v.1.15,2013-03-07 01:00:00,
2013-03-06 18:05:00,35.6,28.5,29.68,West,277,0.0,19.0,75,0.00,,,0.00,Wunderground v.1.15,2013-03-07 01:05:00,
2013-03-06 18:10:00,35.6,28.5,29.68,SSE,156,1.0,1.0,75,0.00,,,0.00,Wunderground v.1.15,2013-03-07 01:10:00,
2013-03-06 18:20:00,35.7,28.2,29.68,WNW,300,4.0,4.0,74,0.00,,,0.00,Wunderground v.1.15,2013-03-07 01:20:00,
2013-03-06 18:29:00,35.6,29.1,29.68,NNW,338,4.0,4.0,77,0.00,,,0.00,Wunderground v.1.15,2013-03-07 01:29:00,
2013-03-06 18:35:00,35.1,29.6,29.68,WNW,295,4.0,19.0,80,0.00,,,0.00,Wunderground v.1.15,2013-03-07 01:35:00,
2013-03-06 18:40:00,34.3,29.7,29.69,WSW,255,2.0,19.0,83,0.00,,,0.00,Wunderground v.1.15,2013-03-07 01:40:00,
2013-03-06 18:45:00,33.9,29.9,29.70,SSE,149,2.0,19.0,85,0.00,,,0.00,Wunderground v.1.15,2013-03-07 01:45:00,
2013-03-06 18:55:00,33.5,29.8,29.69,South,179,1.0,19.0,86,0.00,,,0.00,Wunderground v.1.15,2013-03-07 01:55:00,
2013-03-06 19:00:00,33.4,29.9,29.70,North,352,0.0,19.0,87,0.00,,,0.00,Wunderground v.1.15,2013-03-07 02:00:00,
2013-03-06 19:05:00,33.3,29.8,29.70,North,354,1.0,19.0,87,0.00,,,0.00,Wunderground v.1.15,2013-03-07 02:05:00,
2013-03-06 19:14:00,33.0,29.8,29.69,South,169,0.0,19.0,88,0.00,,,0.00,Wunderground v.1.15,2013-03-07 02:14:00,
2013-03-06 19:20:00,33.1,29.7,29.69,South,190,1.0,19.0,87,0.00,,,0.00,Wunderground v.1.15,2013-03-07 02:20:00,
2013-03-06 19:25:00,33.1,29.4,29.69,South,191,1.0,19.0,86,0.00,,,0.00,Wunderground v.1.15,2013-03-07 02:25:00,
2013-03-06 19:30:00,33.1,29.7,29.69,SSW,197,0.0,19.0,87,0.00,,,0.00,Wunderground v.1.15,2013-03-07 02:30:00,
2013-03-06 19:35:00,33.0,29.6,29.69,SSW,197,0.0,19.0,87,0.00,,,0.00,Wunderground v.1.15,2013-03-07 02:35:00,
2013-03-06 19:40:00,32.9,29.5,29.69,West,274,0.0,19.0,87,0.00,,,0.00,Wunderground v.1.15,2013-03-07 02:40:00,
2013-03-06 19:45:00,32.9,29.2,29.68,West,277,0.0,19.0,86,0.00,,,0.00,Wunderground v.1.15,2013-03-07 02:45:00,
2013-03-06 19:50:00,32.8,29.1,29.68,NW,304,0.0,19.0,86,0.00,,,0.00,Wunderground v.1.15,2013-03-07 02:50:00,
2013-03-06 19:59:00,32.5,29.1,29.68,NW,307,0.0,19.0,87,0.00,,,0.00,Wunderground v.1.15,2013-03-07 02:59:00,
2013-03-06 20:04:00,32.4,29.0,29.69,NW,307,0.0,19.0,87,0.00,,,0.00,Wunderground v.1.15,2013-03-07 03:04:00,
2013-03-06 20:10:00,32.3,28.9,29.70,SE,145,0.0,19.0,87,0.00,,,0.00,Wunderground v.1.15,2013-03-07 03:10:00,
2013-03-06 20:15:00,32.1,28.7,29.70,ESE,117,0.0,19.0,87,0.00,,,0.00,Wunderground v.1.15,2013-03-07 03:15:00,
2013-03-06 20:20:00,32.0,28.8,29.70,WNW,296,1.0,19.0,88,0.00,,,0.00,Wunderground v.1.15,2013-03-07 03:20:00,
2013-03-06 20:25:00,31.9,28.8,29.70,SW,231,1.0,19.0,88,0.00,,,0.00,Wunderground v.1.15,2013-03-07 03:25:00,
2013-03-06 20:30:00,31.7,28.3,29.70,SW,233,1.0,1.0,87,0.00,,,0.00,Wunderground v.1.15,2013-03-07 03:30:00,
2013-03-06 20:35:00,31.6,28.2,29.71,West,273,1.0,2.0,87,0.00,,,0.00,Wunderground v.1.15,2013-03-07 03:35:00,
2013-03-06 20:40:00,31.6,28.5,29.71,West,263,1.0,1.0,88,0.00,,,0.00,Wunderground v.1.15,2013-03-07 03:40:00,
2013-03-06 20:49:00,31.3,27.9,29.71,West,274,1.0,19.0,87,0.00,,,0.00,Wunderground v.1.15,2013-03-07 03:49:00,
2013-03-06 20:55:00,31.4,28.3,29.71,West,269,1.0,19.0,88,0.00,,,0.00,Wunderground v.1.15,2013-03-07 03:55:00,
2013-03-06 21:00:00,31.4,28.0,29.72,West,270,0.0,19.0,87,0.00,,,0.00,Wunderground v.1.15,2013-03-07 04:00:00,
2013-03-06 21:05:00,31.4,28.0,29.72,West,270,0.0,19.0,87,0.00,,,0.00,Wunderground v.1.15,2013-03-07 04:05:00,
2013-03-06 21:15:00,31.2,28.1,29.72,NW,324,0.0,19.0,88,0.00,,,0.00,Wunderground v.1.15,2013-03-07 04:15:00,
2013-03-06 21:20:00,30.9,27.8,29.72,NW,324,0.0,19.0,88,0.00,,,0.00,Wunderground v.1.15,2013-03-07 04:20:00,
2013-03-06 21:25:00,30.7,27.6,29.72,West,259,0.0,19.0,88,0.00,,,0.00,Wunderground v.1.15,2013-03-07 04:25:00,
2013-03-06 21:34:00,31.0,28.1,29.73,West,274,2.0,19.0,89,0.00,,,0.00,Wunderground v.1.15,2013-03-07 04:34:00,
2013-03-06 21:40:00,31.2,28.1,29.73,SE,138,1.0,1.0,88,0.00,,,0.00,Wunderground v.1.15,2013-03-07 04:40:00,
2013-03-06 21:45:00,31.3,27.9,29.73,WNW,284,0.0,19.0,87,0.00,,,0.00,Wunderground v.1.15,2013-03-07 04:45:00,
2013-03-06 21:50:00,31.5,28.1,29.73,West,275,0.0,19.0,87,0.00,,,0.00,Wunderground v.1.15,2013-03-07 04:50:00,
2013-03-06 21:55:00,31.7,28.3,29.73,WNW,301,0.0,19.0,87,0.00,,,0.00,Wunderground v.1.15,2013-03-07 04:55:00,
2013-03-06 22:00:00,31.8,28.1,29.74,WNW,295,1.0,1.0,86,0.00,,,0.00,Wunderground v.1.15,2013-03-07 05:00:00,
2013-03-06 22:04:00,31.7,28.0,29.74,ENE,68,1.0,2.0,86,0.00,,,0.00,Wunderground v.1.15,2013-03-07 05:04:00,
2013-03-06 22:09:00,32.0,26.2,29.73,SW,214,2.0,19.0,79,0.00,,,0.00,Wunderground v.1.15,2013-03-07 05:09:00,
2013-03-06 22:15:00,32.6,26.5,29.73,SSE,159,7.0,19.0,78,0.00,,,0.00,Wunderground v.1.15,2013-03-07 05:15:00,
2013-03-06 22:20:00,32.8,26.1,29.73,SSW,194,10.0,19.0,76,0.00,,,0.00,Wunderground v.1.15,2013-03-07 05:20:00,
2013-03-06 22:25:00,33.2,24.5,29.73,SW,231,10.0,19.0,70,0.00,,,0.00,Wunderground v.1.15,2013-03-07 05:25:00,
2013-03-06 22:30:00,33.9,23.4,29.73,South,169,8.0,8.0,65,0.00,,,0.00,Wunderground v.1.15,2013-03-07 05:30:00,
2013-03-06 22:39:00,34.0,23.5,29.74,South,191,6.0,19.0,65,0.00,,,0.00,Wunderground v.1.15,2013-03-07 05:39:00,
2013-03-06 22:45:00,34.1,22.8,29.74,SSW,211,8.0,19.0,63,0.00,,,0.00,Wunderground v.1.15,2013-03-07 05:45:00,
2013-03-06 22:50:00,34.2,22.5,29.75,WNW,300,8.0,8.0,62,0.00,,,0.00,Wunderground v.1.15,2013-03-07 05:50:00,
2013-03-06 23:00:00,33.0,26.6,29.75,WNW,288,5.0,5.0,77,0.00,,,0.00,Wunderground v.1.15,2013-03-07 06:00:00,
2013-03-06 23:05:00,32.3,26.8,29.75,West,269,3.0,19.0,80,0.00,,,0.00,Wunderground v.1.15,2013-03-07 06:05:00,
2013-03-06 23:10:00,31.8,26.6,29.75,West,263,1.0,19.0,81,0.00,,,0.00,Wunderground v.1.15,2013-03-07 06:10:00,
2013-03-06 23:20:00,31.2,26.6,29.75,NW,311,0.0,19.0,83,0.00,,,0.00,Wunderground v.1.15,2013-03-07 06:20:00,
2013-03-06 23:25:00,30.9,26.6,29.75,NW,310,0.0,19.0,84,0.00,,,0.00,Wunderground v.1.15,2013-03-07 06:25:00,
2013-03-06 23:30:00,30.7,26.4,29.75,ESE,118,0.0,19.0,84,0.00,,,0.00,Wunderground v.1.15,2013-03-07 06:30:00,
2013-03-06 23:35:00,30.5,26.5,29.76,WNW,301,0.0,19.0,85,0.00,,,0.00,Wunderground v.1.15,2013-03-07 06:35:00,
2013-03-06 23:40:00,30.3,26.3,29.76,WNW,301,0.0,19.0,85,0.00,,,0.00,Wunderground v.1.15,2013-03-07 06:40:00,
2013-03-06 23:49:00,30.8,26.0,29.76,SE,137,1.0,19.0,82,0.00,,,0.00,Wunderground v.1.15,2013-03-07 06:49:00,
2013-03-06 23:55:00,30.9,24.2,29.77,SSE,162,2.0,19.0,76,0.00,,,0.00,Wunderground v.1.15,2013-03-07 06:55:00,